Location: Chervonnoye
(48.6000°N, 34.4000°E)
Time: 05:36:48
(UTC+00:00)

H-2A R/B - Pass Details

Date: 23 November 2020
Orbit: 733 x 836 km, 98.2° (Epoch: 18 January)

Event Time Altitude Azimuth Distance (km) Brightness Sun altitude
Exits shadow 15:02:37 10° 101° (E) 2,390 4.0 -11.1°
Maximum altitude 15:06:11 19° 58° (ENE) 1,839 3.4 -11.6°
Drops below altitude 10° 15:09:44 10° 15° (NNE) 2,367 4.2 -12.2°
Sets 15:12:39 0° 358° (N) 3,281 5.1 -12.6°
